Demopolis Municipal Airport, AL

5:57 PM CST on November 18, 2017 (GMT -0600)
Demopolis Municipal Airport

Weather History for KDYA - January, 2014

Change the Weather History Date:

Saturday, January 18, 2014

  Actual Average (KNMM) Record (KNMM)
Temperature  
Mean Temperature 36 °F -  
Max Temperature 54 °F 54 °F 70 °F (2000)
Min Temperature 18 °F 35 °F 16 °F (1997)
Degree Days  
Heating Degree Days 29    
Moisture  
Dew Point 18 °F    
Average Humidity 53    
Maximum Humidity 100    
Minimum Humidity 18    
Precipitation  
Precipitation 0.00 in - - ()
Sea Level Pressure  
Sea Level Pressure 30.17 in    
Wind  
Wind Speed 1 mph (SSW)    
Max Wind Speed 12 mph    
Max Gust Speed 18 mph    
Visibility 10 miles    
Events      
Averages and records for this station are not official NWS values.
T = Trace of Precipitation, MM = Missing Value Source: NWS Daily Summary

Daily Weather History Graph

Daily Weather History Graph

Search for Another Location

Airport or City:

Trip Planner

Search our weather history database for the weather conditions in past years. The results will help you decide how hot, cold, wet, or windy it might be!

Date:

Astronomy

Jan. 18, 2014 Rise Set
Actual Time 6:52 AM CST 5:11 PM CST
Civil Twilight 6:26 AM CST 5:38 PM CST
Nautical Twilight 5:56 AM CST 6:08 PM CST
Astronomical Twilight 5:26 AM CST 6:37 PM CST
Moon 7:42 PM CST 8:02 AM CST
Length of Visible Light 11h 11m
Length of Day
10h 19m
Waning Gibbous, 94% of the Moon is Illuminated
Jan 18
Waning Gibbous
Jan 23
Last Quarter
Jan 30
New
Feb 6
First Quarter
Feb 14
Full

Hourly Weather History & Observations

Time (CST) Temp. Windchill Dew Point Humidity Pressure Visibility Wind Dir Wind Speed Gust Speed Precip Events Conditions
12:15 AM 24.1 °F - 18.5 °F 79% 30.22 in 10.0 mi Calm Calm - N/A   Clear
12:35 AM 23.9 °F - 18.3 °F 79% 30.23 in 10.0 mi Calm Calm - N/A   Clear
12:55 AM 23.7 °F - 18.7 °F 81% 30.23 in 10.0 mi Calm Calm - N/A   Clear
1:15 AM 23.0 °F - 18.3 °F 82% 30.24 in 10.0 mi Calm Calm - N/A   Clear
1:35 AM 22.1 °F - 19.2 °F 89% 30.24 in 10.0 mi Calm Calm - N/A   Clear
1:55 AM 21.6 °F - 21.2 °F 99% 30.25 in 10.0 mi Calm Calm - N/A   Clear
2:15 AM 22.1 °F - 22.1 °F 100% 30.25 in 10.0 mi Calm Calm - N/A   Clear
2:35 AM 21.7 °F - 19.0 °F 89% 30.25 in 10.0 mi Calm Calm - N/A   Clear
2:55 AM 21.2 °F - 21.2 °F 100% 30.26 in 10.0 mi Calm Calm - N/A   Clear
3:15 AM 20.7 °F - 20.7 °F 100% 30.27 in 10.0 mi Calm Calm - N/A   Clear
3:35 AM 20.7 °F - 20.7 °F 100% 30.26 in 10.0 mi Calm Calm - N/A   Clear
3:55 AM 20.7 °F - 20.7 °F 100% 30.26 in 10.0 mi Calm Calm - N/A   Clear
4:15 AM 20.1 °F - 20.1 °F 100% 30.26 in 10.0 mi Calm Calm - N/A   Clear
4:35 AM 19.4 °F - 19.4 °F 100% 30.26 in 10.0 mi Calm Calm - N/A   Clear
4:55 AM 19.9 °F - 19.9 °F 100% 30.26 in 10.0 mi Calm Calm - N/A   Clear
5:15 AM 19.4 °F - 19.4 °F 100% 30.26 in 10.0 mi Calm Calm - N/A   Clear
5:35 AM 19.4 °F - 19.4 °F 100% 30.27 in 10.0 mi Calm Calm - N/A   Clear
5:55 AM 19.4 °F - 19.4 °F 100% 30.26 in 10.0 mi Calm Calm - N/A   Clear
6:15 AM 18.7 °F - 18.7 °F 100% 30.26 in 10.0 mi Calm Calm - N/A   Clear
6:35 AM 19.2 °F - 19.2 °F 100% 30.27 in 10.0 mi Calm Calm - N/A   Clear
6:55 AM 18.9 °F - 18.9 °F 100% 30.26 in 10.0 mi Calm Calm - N/A   Clear
7:15 AM 19.6 °F - 19.6 °F 100% 30.27 in 10.0 mi Calm Calm - N/A   Clear
7:35 AM 23.2 °F - 23.0 °F 99% 30.28 in 10.0 mi Calm Calm - N/A   Clear
7:55 AM 25.5 °F - 21.0 °F 83% 30.28 in 10.0 mi Calm Calm - N/A   Clear
8:15 AM 28.2 °F - 21.7 °F 77% 30.28 in 10.0 mi Calm Calm - N/A   Clear
8:35 AM 30.7 °F - 20.8 °F 67% 30.28 in 10.0 mi Calm Calm - N/A   Clear
8:55 AM 33.3 °F - 21.0 °F 61% 30.29 in 10.0 mi Calm Calm - N/A   Clear
9:15 AM 36.5 °F - 19.8 °F 51% 30.30 in 10.0 mi Calm Calm - N/A   Clear
9:35 AM 38.3 °F - 16.7 °F 42% 30.30 in 10.0 mi Calm Calm - N/A   Clear
9:55 AM 40.3 °F - 13.5 °F 34% 30.29 in 10.0 mi Calm Calm - N/A   Clear
10:15 AM 41.2 °F - 13.1 °F 32% 30.28 in 10.0 mi Calm Calm - N/A   Clear
10:35 AM 41.9 °F - 12.0 °F 30% 30.28 in 10.0 mi Calm Calm - N/A   Clear
10:55 AM 44.1 °F - 10.9 °F 26% 30.26 in 10.0 mi Calm Calm - N/A   Clear
11:15 AM 45.5 °F - 10.6 °F 24% 30.25 in 10.0 mi Calm Calm - N/A   Clear
11:35 AM 46.6 °F - 10.2 °F 23% 30.23 in 10.0 mi Calm Calm - N/A   Clear
11:55 AM 48.4 °F - 10.2 °F 21% 30.20 in 10.0 mi SSW 3.5 mph - N/A   Clear
12:15 PM 49.1 °F - 11.3 °F 22% 30.19 in 10.0 mi SSW 9.2 mph - N/A   Clear
12:35 PM 50.9 °F - 11.8 °F 21% 30.17 in 10.0 mi WSW 6.9 mph - N/A   Clear
12:55 PM 51.4 °F - 10.8 °F 20% 30.15 in 10.0 mi WSW 9.2 mph - N/A   Clear
1:15 PM 52.2 °F - 10.0 °F 19% 30.15 in 10.0 mi Calm Calm - N/A   Clear
1:35 PM 53.1 °F - 10.2 °F 18% 30.13 in 10.0 mi Calm Calm - N/A   Clear
1:55 PM 53.8 °F - 11.5 °F 19% 30.12 in 10.0 mi SSW 8.1 mph 17.3 mph N/A   Clear
2:15 PM 54.5 °F - 12.6 °F 19% 30.11 in 10.0 mi Calm Calm - N/A   Clear
2:35 PM 54.0 °F - 12.6 °F 19% 30.10 in 10.0 mi Calm Calm - N/A   Clear
2:55 PM 54.5 °F - 12.2 °F 19% 30.09 in 10.0 mi SW 11.5 mph - N/A   Clear
3:15 PM 54.5 °F - 12.2 °F 19% 30.09 in 10.0 mi South 9.2 mph 16.1 mph N/A   Clear
3:35 PM 54.9 °F - 12.9 °F 19% 30.08 in 10.0 mi South 8.1 mph - N/A   Clear
3:55 PM 54.5 °F - 13.6 °F 20% 30.08 in 10.0 mi Calm Calm - N/A   Clear
4:15 PM 54.3 °F - 14.4 °F 21% 30.07 in 10.0 mi South 4.6 mph - N/A   Clear
4:35 PM 53.4 °F - 14.4 °F 21% 30.07 in 10.0 mi Calm Calm - N/A   Clear
4:55 PM 52.5 °F - 14.5 °F 22% 30.07 in 10.0 mi Calm Calm - N/A   Clear
5:15 PM 51.3 °F - 14.9 °F 24% 30.06 in 10.0 mi Calm Calm - N/A   Clear
5:35 PM 50.4 °F - 15.4 °F 25% 30.06 in 10.0 mi Calm Calm - N/A   Clear
5:55 PM 49.5 °F - 15.8 °F 26% 30.04 in 10.0 mi Calm Calm - N/A   Clear
6:15 PM 48.9 °F - 16.2 °F 27% 30.04 in 10.0 mi Calm Calm - N/A   Clear
6:35 PM 48.2 °F - 16.5 °F 28% 30.04 in 10.0 mi Calm Calm - N/A   Clear
6:55 PM 47.3 °F - 16.9 °F 30% 30.03 in 10.0 mi Calm Calm - N/A   Clear
7:15 PM 48.2 °F - 16.7 °F 29% 30.02 in 10.0 mi Calm Calm - N/A   Clear
7:35 PM 48.2 °F - 17.1 °F 29% 30.03 in 10.0 mi South 5.8 mph - N/A   Clear
7:55 PM 48.7 °F - 18.5 °F 30% 30.03 in 10.0 mi SSW 10.4 mph 17.3 mph N/A   Clear
8:15 PM 48.4 °F - 19.4 °F 32% 30.02 in 10.0 mi South 5.8 mph - N/A   Clear
8:35 PM 48.2 °F - 20.3 °F 33% 30.03 in 10.0 mi South 11.5 mph 18.4 mph N/A   Clear
8:55 PM 47.8 °F - 20.8 °F 34% 30.03 in 10.0 mi Calm Calm - N/A   Clear
9:15 PM 47.5 °F - 21.4 °F 36% 30.04 in 10.0 mi Calm Calm - N/A   Clear
9:35 PM 46.8 °F - 22.3 °F 38% 30.04 in 10.0 mi Calm Calm - N/A   Clear
9:55 PM 46.6 °F - 23.0 °F 39% 30.05 in 10.0 mi Calm Calm - N/A   Clear
10:15 PM 46.0 °F - 23.9 °F 42% 30.06 in 10.0 mi Calm Calm - N/A   Clear
10:35 PM 45.5 °F - 24.6 °F 44% 30.06 in 10.0 mi Calm Calm - N/A   Clear
10:55 PM 44.8 °F 42.4 °F 25.3 °F 47% 30.06 in 10.0 mi SSW 4.6 mph - N/A   Clear
11:15 PM 44.8 °F 40.4 °F 26.2 °F 48% 30.05 in 10.0 mi SSW 8.1 mph - N/A   Clear
11:35 PM 44.8 °F - 27.0 °F 50% 30.04 in 10.0 mi Calm Calm - N/A   Clear
11:55 PM 45.1 °F - 27.5 °F 50% 30.03 in 10.0 mi Calm Calm - N/A   Clear